Deptford, New Jersey, United States
Lat: 39.83N, Lon: 75.13W
Wx Zone: NJZ017
Local Info
Past Weather Observations for Wednesday, August 27, 2014

NOTE: This archive is for the closest National Weather Service station to Deptford. Information may differ from the station used for current weather conditions.

Click here for Long-term Archive

Time Weather Temperature Dewpoint Humidity Pressure Winds Precip Visibility
23:54
Overcast
77°F / 25°C 68°F / 20°C 74% 29.89 in
(1012 mb)
SSW 6.9 mph
(SSW 11 kph)
- 10SM
22:54
Partly Cloudy
77°F / 25°C 66°F / 19°C 69% 29.89 in
(1012 mb)
SSW 8.1 mph
(SSW 13 kph)
- 10SM
21:54
Partly Cloudy
79°F / 26°C 66°F / 19°C 65% 29.92 in
(1013 mb)
SW 8.1 mph
(SW 13 kph)
- 10SM
20:54
Partly Cloudy
81°F / 27°C 66°F / 19°C 62% 29.92 in
(1013 mb)
SW 10.4 mph
(SW 17 kph)
- 10SM
19:54
Partly Cloudy
82°F / 28°C 66°F / 19°C 58% 29.92 in
(1013 mb)
SW 10.4 mph
(SW 17 kph)
- 10SM
18:54
Partly Cloudy
84°F / 29°C 66°F / 19°C 55% 29.89 in
(1012 mb)
SW 9.2 mph
(SW 15 kph)
- 10SM
17:54
Partly Cloudy
86°F / 30°C 64°F / 18°C 49% 29.92 in
(1013 mb)
SW 11.5 mph
(SW 19 kph)
- 10SM
16:54
Partly Cloudy
88°F / 31°C 64°F / 18°C 46% 29.92 in
(1013 mb)
SW 10.4 mph
(SW 17 kph)
- 10SM
15:54
Clear
90°F / 32°C 64°F / 18°C 43% 29.92 in
(1013 mb)
SW 8.1 mph
(SW 13 kph)
- 10SM
14:54
Clear
88°F / 31°C 64°F / 18°C 46% 29.92 in
(1013 mb)
SW 9.2 mph
(SW 15 kph)
- 10SM
13:54
Partly Cloudy
88°F / 31°C 64°F / 18°C 46% 29.95 in
(1014 mb)
SSW 11.5 mph
(SSW 19 kph)
- 10SM
12:54
Partly Cloudy
88°F / 31°C 61°F / 16°C 40% 29.98 in
(1015 mb)
SW 9.2 mph
(SW 15 kph)
- 10SM
11:54
Clear
86°F / 30°C 63°F / 17°C 46% 30.01 in
(1016 mb)
SSW 9.2 mph
(SSW 15 kph)
- 10SM
10:54
Clear
82°F / 28°C 64°F / 18°C 55% 30.04 in
(1017 mb)
SSW 9.2 mph
(SSW 15 kph)
- 10SM
09:54
Partly Cloudy
81°F / 27°C 64°F / 18°C 58% 30.06 in
(1018 mb)
SSW 6.9 mph
(SSW 11 kph)
- 10SM
08:54
Partly Cloudy
75°F / 24°C 64°F / 18°C 69% 30.06 in
(1018 mb)
S 5.8 mph
(S 9 kph)
- 10SM
07:54
Partly Cloudy
73°F / 23°C 64°F / 18°C 74% 30.06 in
(1018 mb)
SW 5.8 mph
(SW 9 kph)
- 10SM
06:54
Partly Cloudy
70°F / 21°C 63°F / 17°C 78% 30.06 in
(1018 mb)
S 4.6 mph
(S 7 kph)
- 10SM
05:54
Partly Cloudy
70°F / 21°C 64°F / 18°C 83% 30.06 in
(1018 mb)
SW 3.5 mph
(SW 6 kph)
- 10SM
04:54
Clear
66°F / 19°C 63°F / 17°C 88% 30.06 in
(1018 mb)
SSE 4.6 mph
(SSE 7 kph)
- 10SM
03:54
Clear
70°F / 21°C 61°F / 16°C 73% 30.06 in
(1018 mb)
SW 3.5 mph
(SW 6 kph)
- 10SM
02:54
Clear
70°F / 21°C 61°F / 16°C 73% 30.06 in
(1018 mb)
SW 4.6 mph
(SW 7 kph)
- 10SM
01:54
Clear
70°F / 21°C 63°F / 17°C 78% 30.06 in
(1018 mb)
SSW 4.6 mph
(SSW 7 kph)
- 10SM
00:54
Clear
70°F / 21°C 63°F / 17°C 78% 30.09 in
(1019 mb)
SSW 4.6 mph
(SSW 7 kph)
- 10SM
Time Weather Temperature Dewpoint Humidity Pressure Winds Precip Visibility


Weather for websites

WeatherForYou.com, LLC is not responsible for any damages or problems caused by this service. Current weather conditions are obtained from the closest station including government and personal stations which may have varying degrees of accuracy. Weather forecasts are derived from the NOAA NDFD. Like all things, this site belongs to Jesus Christ... He just trusts me to maintain it. If you have any questions or comments email webmaster@weatherforyou.com

Copyright © 2014, WeatherForYou.com LLC. All rights reserved.